[[{"header":{"parameterUnit":"m.s-1","parameterCategory":1,"la1":30.2991,"la2":30.254,"lo1":-89.0895,"lo2":-89.0444,"dy":0.0017,"dx":0.0017,"nx":28,"ny":28,"refTime":"2024-07-23T09:00:00:Z","depth":0,"parameterNumber":2,"parameterNumberName":"U-component_of_WINDS"},"data":[0,0,0,0,0,0,0,0,0,0,0,0,0,0,0,0,0,0,0,0,0,0,0,0,0,0,0,0,0,0,0,0,0,0,0,0,0,0,0,0,0,0,0,0,0,0,0,0,0,0,0,0,0,0,0,0,0,0,1.8899,1.8899,0,1.8894,1.8894,1.8894,1.8837,1.8836,1.8834,1.8833,1.8828,1.8829,1.883,0,0,0,0,0,0,0,0,0,0,0,0,0,1.8858,1.8859,1.8899,1.8899,1.8899,1.8894,1.8894,1.8894,1.8838,1.8836,1.8834,1.8832,1.8828,1.8829,1.8831,0,0,0,0,0,0,0,0,0,0,0,0,0,1.8867,1.8859,1.8899,1.887,1.8868,1.8894,1.8894,1.8894,1.8838,1.8836,1.8834,1.8832,1.8827,1.8829,1.8831,1.8885,0,0,1.8836,1.8837,0,0,0,0,0,0,0,0,1.8866,1.8868,1.8875,1.8872,1.8869,1.8864,1.8878,1.8891,1.8838,1.8849,1.8833,1.8831,1.8842,1.8842,1.8846,1.8885,1.8885,1.8836,1.8838,1.8838,1.8839,0,0,0,0,0,0,0,1.8866,1.8868,1.8897,1.8875,1.8872,1.8857,1.8856,1.888,1.8858,1.8848,1.8844,1.8844,1.884,1.8845,1.8846,1.8884,1.8836,1.8838,1.8839,1.884,1.8963,1.8965,0,0,0,0,0,0,1.8869,1.8868,1.8898,1.8897,1.8862,1.8859,1.8858,1.8868,1.8857,1.8854,1.8846,1.8842,1.8843,1.8844,1.8845,1.8905,1.8838,1.884,1.8841,1.8961,1.8964,1.8966,0,0,0,0,0,0,1.8869,1.8872,1.8898,1.8881,1.8884,1.8862,1.8874,1.8869,1.8874,1.8856,1.8851,1.8855,1.8841,1.8843,1.8875,1.8904,1.8841,1.8842,1.8959,1.8962,1.8965,1.9027,0,0,0,0,0,0,1.8868,1.8872,1.8893,1.8882,1.8885,1.8928,1.8876,1.8871,1.8877,1.8871,1.8863,1.8859,1.8839,1.8872,1.8876,1.8905,1.8844,1.8956,1.896,1.8964,1.9022,1.9032,1.904,0,0,0,0,0,1.8866,1.8912,1.8895,1.8899,1.891,1.893,1.8931,1.8907,1.888,1.89,1.8888,1.886,1.8901,1.8876,1.888,1.891,1.8954,1.8959,1.8964,1.9018,1.903,1.904,0,0,0,0,0,0,1.8928,1.891,1.8891,1.8934,1.8934,1.892,1.8945,1.8921,1.8929,1.8923,1.8893,1.8891,1.8927,1.8922,1.8895,1.896,1.8922,1.8928,1.8962,1.8973,1.8982,1.8981,1.8845,0,0,0,0,0,1.8946,1.8964,1.8947,1.8987,1.8988,1.8967,1.8974,1.8956,1.8954,1.8954,1.8944,1.8944,1.8956,1.8965,1.8975,1.9022,1.9017,1.9044,1.9053,1.9061,1.9066,1.9086,1.9097,1.8982,1.8982,1.8982,0,0,1.8985,1.8977,1.8991,1.8999,1.8997,1.9014,1.8967,1.8989,1.9001,1.8957,1.8985,1.8979,1.8976,1.9014,1.9031,1.9011,1.9096,1.9067,1.9073,1.9074,1.9092,1.9103,1.9113,1.8986,1.8985,1.8985,0,0,1.9064,1.9061,1.9092,1.909,1.9086,1.9071,1.9079,1.9069,1.9062,1.909,1.9057,1.9071,1.9094,1.9092,1.9094,1.9169,1.9143,1.9174,1.9221,1.9241,1.925,1.9258,1.9282,1.9291,1.9179,1.918,1.918,0,1.9112,1.9137,1.9111,1.9134,1.9137,1.9098,1.9128,1.9128,1.9128,1.9131,1.9109,1.9135,1.913,1.9166,1.9184,1.9189,1.9194,1.9174,1.9251,1.9259,1.9265,1.9288,1.9297,1.9183,1.9183,1.9182,1.9182,0,1.9195,1.9213,1.9239,1.9238,1.9245,1.9272,1.9249,1.9259,1.9239,1.9227,1.9254,1.9247,1.9254,1.9262,1.9244,1.9295,1.9282,1.9257,1.9217,1.928,1.9301,1.9309,1.9188,1.9187,1.9186,1.9185,0,0,1.9312,1.9296,1.9305,1.9303,1.9295,1.9308,1.9332,1.9339,1.9346,1.9348,1.9365,1.9385,1.936,1.9362,1.9344,1.9362,1.9418,1.9333,1.9333,1.9347,1.947,1.9487,1.9498,1.9401,1.9403,1.9404,1.9469,0,1.9385,1.9424,1.9401,1.9443,1.9458,1.942,1.944,1.9437,1.9425,1.9436,1.9423,1.9435,1.9404,1.9404,1.9421,1.9408,1.9442,1.9403,1.9415,1.9416,1.9414,1.9509,1.9528,1.9589,1.9477,1.9478,1.9479,0,1.9476,1.9479,1.9523,1.9509,1.9514,1.9533,1.9535,1.9546,1.9541,1.9531,1.9533,1.9509,1.953,1.9493,1.952,1.9494,1.9497,1.9492,1.9493,1.9491,1.945,1.9507,1.9609,1.9617,1.9492,1.9491,1.949,0,1.9552,1.9568,1.9595,1.9595,1.9581,1.9594,1.9589,1.9582,1.9586,1.9589,1.959,1.9596,1.9598,1.9602,1.9579,1.9555,1.9608,1.957,1.9599,1.9599,1.961,1.9609,1.9711,1.9617,1.9617,1.9617,1.9617,0,1.9634,1.9662,1.9629,1.9645,1.9674,1.9646,1.9676,1.9666,1.966,1.9673,1.9642,1.9654,1.9625,1.9634,1.9617,1.964,1.9643,1.9634,1.9628,1.9635,1.9636,1.9635,1.9629,1.9619,1.9619,1.9618,1.9618,0,1.9724,1.9704,1.973,1.9714,1.971,1.9732,1.9718,1.9731,1.9718,1.9734,1.9737,1.9714,1.9724,1.9702,1.9709,1.9697,1.9729,1.9719,1.9731,1.9726,1.9755,1.9751,1.9858,1.9869,1.9771,1.9772,1.9773,0,1.9777,1.9796,1.9782,1.9788,1.9784,1.9795,1.9798,1.9771,1.9776,1.9771,1.9785,1.9791,1.9795,1.9811,1.9795,1.98,1.9787,1.9824,1.9787,1.9792,1.9784,1.9782,1.9782,1.9831,1.9832,1.9833,1.9834,0,1.9871,1.9859,1.9865,1.9867,1.9872,1.9873,1.9872,1.9878,1.985,1.9857,1.9865,1.9868,1.9874,1.988,1.988,1.9874,1.9848,1.9846,1.9852,1.9857,1.9862,1.9857,1.9748,1.9843,1.9842,1.9841,1.9841,1.984,1.9941,1.9955,1.9946,1.9954,1.9949,1.9948,1.9959,1.9946,1.9953,1.9955,1.9939,1.995,1.9942,1.994,1.9936,1.9944,1.9927,1.9937,1.9939,1.9941,1.9944,1.9863,1.9944,1.9944,1.9944,1.9944,1.9943,0,2.003,2.0022,2.003,2.0027,2.0033,2.0009,2.0005,2.0011,2.0021,2.0016,2.0019,2.0028,2.0033,2.0018,2.002,2.0029,2.0017,2.003,2.0028,2.0026,1.9961,1.9954,2.004,2.004,2.004,2.004,2.004,2.004,2.0077,2.0099,2.0086,2.0105,2.0097,2.0107,2.0107,2.0105,2.01,2.0111,2.0115,2.0104,2.0094,2.0095,2.0099,2.0094,2.0095,2.0111,2.0102,2.0041,2.0031,2.0022,2.0015,2.0113,2.0113,2.0166,2.0167,2.0167]},{"header":{"parameterUnit":"m.s-1","parameterCategory":1,"la1":30.2991,"la2":30.254,"lo1":-89.0895,"lo2":-89.0444,"dy":0.0017,"dx":0.0017,"nx":28,"ny":28,"refTime":"2024-07-23T09:00:00:Z","depth":0,"parameterNumber":3,"parameterNumberName":"V-component_of_WINDS"},"data":[0,0,0,0,0,0,0,0,0,0,0,0,0,0,0,0,0,0,0,0,0,0,0,0,0,0,0,0,0,0,0,0,0,0,0,0,0,0,0,0,0,0,0,0,0,0,0,0,0,0,0,0,0,0,0,0,0,0,3.7749,3.7751,0,3.7953,3.7956,3.7958,3.7979,3.7977,3.7975,3.7973,3.8174,3.8181,3.8188,0,0,0,0,0,0,0,0,0,0,0,0,0,3.7368,3.7375,3.7749,3.7751,3.7754,3.7953,3.7956,3.7958,3.7979,3.7977,3.7974,3.7972,3.8172,3.818,3.8189,0,0,0,0,0,0,0,0,0,0,0,0,0,3.7549,3.7378,3.7748,3.7789,3.7794,3.7952,3.7956,3.7959,3.798,3.7977,3.7974,3.7971,3.8169,3.8179,3.819,3.832,0,0,3.8224,3.8228,0,0,0,0,0,0,0,0,3.7539,3.7563,3.778,3.7786,3.7793,3.7938,3.7895,3.808,3.7981,3.7909,3.7973,3.7969,3.8097,3.8114,3.8159,3.8329,3.8338,3.8225,3.8231,3.8236,3.8239,0,0,0,0,0,0,0,3.7526,3.7554,3.7829,3.7783,3.7791,3.7794,3.7816,3.793,3.8018,3.7915,3.7917,3.7941,3.81,3.8148,3.8164,3.8341,3.8224,3.8234,3.8241,3.8245,3.8625,3.8628,0,0,0,0,0,0,3.7507,3.7544,3.7823,3.7836,3.7656,3.7803,3.7828,3.7894,3.8017,3.8033,3.7944,3.7942,3.8131,3.8151,3.8171,3.8329,3.8236,3.8246,3.8252,3.8621,3.8626,3.8629,0,0,0,0,0,0,3.7499,3.7532,3.7815,3.769,3.7727,3.7813,3.7887,3.79,3.7948,3.8039,3.8053,3.7978,3.8129,3.8155,3.8283,3.8337,3.8251,3.8261,3.8617,3.8623,3.8628,3.8648,0,0,0,0,0,0,3.7488,3.7529,3.7581,3.7692,3.7733,3.7926,3.7891,3.7906,3.7968,3.7967,3.8074,3.8089,3.8129,3.8266,3.8293,3.835,3.8269,3.8613,3.862,3.8626,3.8643,3.8653,3.8662,0,0,0,0,0,3.7474,3.7578,3.7584,3.7618,3.7801,3.7929,3.7953,3.7999,3.7972,3.8024,3.8082,3.8085,3.8326,3.8279,3.831,3.8371,3.861,3.8618,3.8625,3.8638,3.8651,3.8662,0,0,0,0,0,0,3.747,3.7593,3.7601,3.7744,3.7826,3.7933,3.8,3.8011,3.8101,3.8096,3.8147,3.8171,3.8296,3.8346,3.8291,3.8501,3.8465,3.8479,3.8464,3.8477,3.8486,3.8471,3.8279,0,0,0,0,0,3.7485,3.7582,3.7684,3.7799,3.784,3.7913,3.797,3.7999,3.8085,3.8119,3.8187,3.8268,3.8361,3.8422,3.8513,3.865,3.8672,3.8707,3.8716,3.8724,3.8735,3.8809,3.8825,3.8656,3.8656,3.8655,0,0,3.7518,3.7598,3.7655,3.78,3.7868,3.7963,3.7942,3.8045,3.8115,3.8134,3.8259,3.8311,3.8404,3.8536,3.8598,3.8582,3.8787,3.8734,3.8739,3.8747,3.8819,3.8835,3.8849,3.8661,3.866,3.8659,0,0,3.7628,3.7699,3.7802,3.787,3.7973,3.802,3.8044,3.8149,3.8185,3.8312,3.8327,3.841,3.8571,3.8637,3.8691,3.8823,3.8829,3.8851,3.8902,3.8973,3.8986,3.8998,3.9043,3.9059,3.8863,3.8863,3.8863,0,3.7655,3.7803,3.7853,3.7956,3.8018,3.8041,3.8145,3.8207,3.8333,3.8374,3.8355,3.8557,3.8621,3.8768,3.88,3.8844,3.8871,3.8839,3.8981,3.8993,3.9005,3.9049,3.9066,3.8865,3.8865,3.8864,3.8864,0,3.7831,3.7933,3.8004,3.8127,3.8197,3.8299,3.8362,3.8426,3.8448,3.8496,3.8623,3.8701,3.8808,3.8845,3.8867,3.8994,3.8981,3.8971,3.8935,3.9023,3.9064,3.9082,3.8868,3.8867,3.8866,3.8866,0,0,3.7943,3.8093,3.8118,3.8173,3.8287,3.8366,3.8467,3.8574,3.8627,3.8713,3.8798,3.8933,3.8924,3.8985,3.9014,3.9077,3.9174,3.9059,3.9062,3.9076,3.9316,3.9323,3.9341,3.9179,3.9182,3.9185,3.9308,0,3.8064,3.825,3.8297,3.8454,3.8547,3.8569,3.8658,3.8735,3.8783,3.8866,3.8917,3.9012,3.8994,3.9031,3.9094,3.9149,3.9223,3.9141,3.9255,3.9259,3.9231,3.9364,3.9371,3.9484,3.9325,3.9328,3.933,0,3.8231,3.8322,3.8489,3.8589,3.863,3.8709,3.881,3.889,3.8977,3.9007,3.9076,3.9098,3.9201,3.9161,3.9302,3.9246,3.9295,3.9329,3.9334,3.9346,3.9299,3.9377,3.9521,3.9537,3.9356,3.9354,3.9352,0,3.8294,3.8458,3.8579,3.8626,3.8746,3.8801,3.8853,3.8938,3.8998,3.9085,3.9124,3.9221,3.9274,3.9346,3.9393,3.936,3.953,3.9494,3.9555,3.9554,3.9589,3.9586,3.9741,3.9623,3.9622,3.9622,3.9622,0,3.8424,3.8524,3.8609,3.8683,3.8795,3.8846,3.8955,3.9007,3.9082,3.9164,3.9188,3.9264,3.9322,3.9405,3.9442,3.9552,3.9575,3.96,3.9608,3.9598,3.9594,3.963,3.9623,3.9627,3.9626,3.9625,3.9624,0,3.8514,3.8575,3.8707,3.8811,3.8839,3.8917,3.9004,3.9075,3.9122,3.9226,3.9253,3.9326,3.9425,3.9479,3.9602,3.9627,3.9749,3.9754,3.9721,3.9724,3.9781,3.9775,3.9964,3.999,3.9855,3.9857,3.9858,0,3.8592,3.867,3.8782,3.8841,3.8894,3.8987,3.905,3.9102,3.9165,3.927,3.9327,3.9428,3.9511,3.9667,3.9729,3.9823,3.9829,3.9889,3.9843,3.9829,3.9828,3.9822,3.9829,3.9896,3.9897,3.9898,3.9899,0,3.8724,3.875,3.8841,3.8941,3.9016,3.9097,3.9177,3.9222,3.9287,3.9356,3.9459,3.9523,3.9649,3.9748,3.9846,3.9896,3.9908,3.9913,3.9932,3.9921,3.9898,3.991,3.9741,3.9908,3.9908,3.9907,3.9906,3.9906,3.881,3.888,3.897,3.9069,3.9135,3.9209,3.928,3.9337,3.9424,3.9533,3.9558,3.9665,3.9747,3.9881,3.9934,4.0016,4.0004,4.0032,4.0039,4.0044,4.0046,3.9886,4.0034,4.0034,4.0034,4.0033,4.0033,0,3.8942,3.9001,3.9092,3.9204,3.9281,3.9288,3.9376,3.9439,3.9534,3.9612,3.9693,3.9809,3.9905,3.9974,4.0071,4.0123,4.013,4.0146,4.0142,4.0153,4.0052,4.0025,4.0138,4.0138,4.0138,4.0138,4.0138,4.0138,3.902,3.9138,3.9174,3.9324,3.9381,3.9489,3.9538,3.9605,3.9667,3.9797,3.9877,3.9923,3.9996,4.0098,4.0184,4.0202,4.0235,4.025,4.0268,4.0172,4.016,4.015,4.0125,4.0257,4.0258,4.0363,4.0364,4.0364]}]]